[TLELIST] Archives

 

[TLELIST] Current TLEs

August 11th 2025 PST

0 HST 1 20580U 90037B 25222.80051717 .00006978 00000-0 25669-3 0 9997 2 20580 28.4690 34.5871 0001960 343.4910 16.5621 15.25850415741036 0 ISS (ZARYA) 1 25544U 98067A 25222.92732718 .00008419 00000-0 15293-3 0 9997 2 25544 51.6346 35.7476 0001307 177.0594 183.0403 15.50446935523655 0 CXO 1 25867U 99040B 25224.97414867 .00000909 00000-0 00000+0 0 9998 2 25867 50.6254 127.3019 8337354 310.0458 0.8890 0.37804935 27316 ...Continue Reading

[TLELIST] Current TLEs

August 10th 2025 PST

0 HST 1 20580U 90037B 25221.55780125 .00006727 00000-0 24729-3 0 9998 2 20580 28.4688 43.0169 0001854 329.6399 30.4088 15.25834257740843 0 ISS (ZARYA) 1 25544U 98067A 25222.48428578 .00007827 00000-0 14282-3 0 9993 2 25544 51.6367 37.9417 0001853 175.3844 230.1801 15.50428464523587 0 CXO 1 25867U 99040B 25224.97414867 .00000909 00000-0 00000+0 0 9998 2 25867 50.6254 127.3019 8337354 310.0458 0.8890 0.37804935 27316 ...Continue Reading

[TLELIST] Current TLEs

August 10th 2025 PST

0 HST 1 20580U 90037B 25221.55780125 .00006727 00000-0 24729-3 0 9998 2 20580 28.4688 43.0169 0001854 329.6399 30.4088 15.25834257740843 0 ISS (ZARYA) 1 25544U 98067A 25222.48428578 .00007827 00000-0 14282-3 0 9993 2 25544 51.6367 37.9417 0001853 175.3844 230.1801 15.50428464523587 0 CXO 1 25867U 99040B 25224.97414867 .00000909 00000-0 00000+0 0 9998 2 25867 50.6254 127.3019 8337354 310.0458 0.8890 0.37804935 27316 ...Continue Reading

[TLELIST] Current TLEs

August 9th 2025 PST

0 HST 1 20580U 90037B 25220.83832794 .00006225 00000-0 22831-3 0 9993 2 20580 28.4688 47.8976 0001812 321.4971 38.5494 15.25825232740732 0 ISS (ZARYA) 1 25544U 98067A 25221.25173611 .00006550 00000-0 12095-3 0 9994 2 25544 51.6366 44.0509 0001805 168.6393 192.8720 15.50401967523390 0 CXO 1 25867U 99040B 25222.32971541 .00000969 00000-0 00000-0 0 9999 2 25867 50.5518 127.4471 8337855 310.0112 0.8647 0.37797802 16147 ...Continue Reading

[TLELIST] Current TLEs

August 9th 2025 PST

0 HST 1 20580U 90037B 25220.83832794 .00006225 00000-0 22831-3 0 9993 2 20580 28.4688 47.8976 0001812 321.4971 38.5494 15.25825232740732 0 ISS (ZARYA) 1 25544U 98067A 25221.25173611 .00006550 00000-0 12095-3 0 9994 2 25544 51.6366 44.0509 0001805 168.6393 192.8720 15.50401967523390 0 CXO 1 25867U 99040B 25222.32971541 .00000969 00000-0 00000-0 0 9999 2 25867 50.5518 127.4471 8337855 310.0112 0.8647 0.37797802 16147 ...Continue Reading

[TLELIST] Current TLEs

August 9th 2025 PST

0 HST 1 20580U 90037B 25220.83832794 .00006225 00000-0 22831-3 0 9993 2 20580 28.4688 47.8976 0001812 321.4971 38.5494 15.25825232740732 0 ISS (ZARYA) 1 25544U 98067A 25221.25173611 .00006550 00000-0 12095-3 0 9994 2 25544 51.6366 44.0509 0001805 168.6393 192.8720 15.50401967523390 0 CXO 1 25867U 99040B 25222.32971541 .00000969 00000-0 00000-0 0 9999 2 25867 50.5518 127.4471 8337855 310.0112 0.8647 0.37797802 16147 ...Continue Reading

[TLELIST] Current TLEs

August 8th 2025 PST

0 HST 1 20580U 90037B 25219.79181381 .00005617 00000-0 20530-3 0 9993 2 20580 28.4688 54.9965 0001770 309.2871 50.7567 15.25813245740834 0 ISS (ZARYA) 1 25544U 98067A 25219.96234157 .00005989 00000-0 11133-3 0 9999 2 25544 51.6348 50.4484 0001496 166.7359 193.3669 15.50382932523196 0 CXO 1 25867U 99040B 25222.32971541 .00000969 00000-0 00000-0 0 9999 2 25867 50.5518 127.4471 8337855 310.0112 0.8647 0.37797802 16147 ...Continue Reading

[TLELIST] Current TLEs

August 8th 2025 PST

0 HST 1 20580U 90037B 25219.79181381 .00005617 00000-0 20530-3 0 9993 2 20580 28.4688 54.9965 0001770 309.2871 50.7567 15.25813245740834 0 ISS (ZARYA) 1 25544U 98067A 25219.96234157 .00005989 00000-0 11133-3 0 9999 2 25544 51.6348 50.4484 0001496 166.7359 193.3669 15.50382932523196 0 CXO 1 25867U 99040B 25222.32971541 .00000969 00000-0 00000-0 0 9999 2 25867 50.5518 127.4471 8337855 310.0112 0.8647 0.37797802 16147 ...Continue Reading

[TLELIST] Current TLEs

August 7th 2025 PST

0 HST 1 20580U 90037B 25218.87610842 .00005769 00000-0 21114-3 0 9997 2 20580 28.4690 61.2077 0001737 297.7613 62.2806 15.25803849740439 0 ISS (ZARYA) 1 25544U 98067A 25218.93101683 .00006987 00000-0 12862-3 0 9991 2 25544 51.6349 55.5614 0001472 160.5833 199.5213 15.50370089523037 0 CXO 1 25867U 99040B 25219.68491146 .00000921 00000-0 00000-0 0 9990 2 25867 50.5084 127.5403 8340662 310.0269 0.7400 0.37796433 16138 ...Continue Reading

[TLELIST] Current TLEs

August 6th 2025 PST

0 HST 1 20580U 90037B 25217.69876450 .00005745 00000-0 21032-3 0 9998 2 20580 28.4689 69.1937 0001693 282.6101 77.4304 15.25791255740253 0 ISS (ZARYA) 1 25544U 98067A 25217.57738833 .00008075 00000-0 14750-3 0 9991 2 25544 51.6349 62.2717 0001595 155.7040 204.4024 15.50349286522825 0 CXO 1 25867U 99040B 25219.68491146 .00000921 00000-0 00000-0 0 9990 2 25867 50.5084 127.5403 8340662 310.0269 0.7400 0.37796433 16138 ...Continue Reading
  • This mailing list is a public mailing list - anyone may join or leave, at any time.
  • This mailing list is announce-only.

International Space Station (ISS) / Hubble Space Telescope (HST) / Chandra X-Ray Observatory Orbital Data via EMAIL

Privacy Policy:

Private list